• In Lithuania
  • List of Countries
  • For 7 days
  • Water Temperature
  • Satellite Maps
  • Weather Map
  • Weather Widgets
  • user-avatar
    Login

    Hourly Weather Shumen

    Today, 24 January, Wednesday

    Time Temperature Precipitation Wind Pressure Humidity
    00:00 -8°C° 0 mm 3 mps 739 mmHg 78%
    01:00 -8°C° 0 mm 3 mps 739 mmHg 75%
    02:00 -8°C° 0 mm 3 mps 739 mmHg 73%
    03:00 -9°C° 0 mm 3 mps 740 mmHg 73%
    04:00 -9°C° 0 mm 3 mps 740 mmHg 72%
    05:00 -9°C° 0 mm 3 mps 740 mmHg 72%
    06:00 -9°C° 0 mm 3 mps 741 mmHg 72%
    07:00 -9°C° 0 mm 3 mps 741 mmHg 72%
    08:00 -10°C° 0 mm 3 mps 742 mmHg 73%
    09:00 -9°C° 0 mm 3 mps 742 mmHg 68%
    10:00 -7°C° 0 mm 3 mps 743 mmHg 64%
    11:00 -6°C° 0 mm 3 mps 743 mmHg 59%
    12:00 -7°C° 0 mm 4 mps 743 mmHg 59%
    13:00 -5°C° 0 mm 4 mps 743 mmHg 58%
    14:00 -5°C° 0 mm 4 mps 743 mmHg 58%
    15:00 -5°C° 0 mm 3 mps 743 mmHg 63%
    16:00 -6°C° 0 mm 3 mps 743 mmHg 68%
    17:00 -6°C° 0 mm 2 mps 743 mmHg 73%
    18:00 -7°C° 0 mm 2 mps 743 mmHg 75%
    19:00 -7°C° 0 mm 2 mps 743 mmHg 78%
    20:00 -7°C° 0 mm 1 mps 743 mmHg 80%
    21:00 -7°C° 0 mm 1 mps 743 mmHg 80%
    22:00 -7°C° 0 mm 1 mps 743 mmHg 80%
    23:00 -7°C° 0 mm 1 mps 743 mmHg 79%

    Tomorrow, 25 January, Thursday

    Time Temperature Precipitation Wind Pressure Humidity
    00:00 -7°C° 0 mm 1 mps 743 mmHg 78%
    01:00 -7°C° 0 mm 1 mps 743 mmHg 76%
    02:00 -7°C° 0 mm 1 mps 743 mmHg 75%
    03:00 -7°C° 0 mm 1 mps 742 mmHg 73%
    04:00 -7°C° 0 mm 1 mps 742 mmHg 71%
    05:00 -7°C° 0 mm 1 mps 742 mmHg 69%
    06:00 -7°C° 0 mm 1 mps 742 mmHg 67%
    07:00 -7°C° 0 mm 1 mps 742 mmHg 65%
    08:00 -7°C° 0 mm 1 mps 742 mmHg 63%
    09:00 -4°C° 0 mm 1 mps 742 mmHg 59%
    10:00 -2°C° 0 mm 1 mps 742 mmHg 55%
    11:00 0°C° 0 mm 1 mps 742 mmHg 50%
    12:00 0°C° 0 mm 1 mps 742 mmHg 50%
    13:00 +1°C° 0 mm 1 mps 741 mmHg 50%
    14:00 +2°C° 0 mm 1 mps 741 mmHg 50%
    15:00 +1°C° 0 mm 1 mps 740 mmHg 55%
    16:00 0°C° 0 mm 1 mps 740 mmHg 59%
    17:00 -1°C° 0 mm 1 mps 740 mmHg 63%
    18:00 -2°C° 0 mm 1 mps 740 mmHg 66%
    19:00 -2°C° 0 mm 1 mps 740 mmHg 70%
    20:00 -3°C° 0 mm 1 mps 740 mmHg 73%
    21:00 -3°C° 0 mm 1 mps 740 mmHg 76%
    22:00 -3°C° 0 mm 1 mps 740 mmHg 78%
    23:00 -3°C° 0 mm 1 mps 740 mmHg 81%

    Day after tomorrow, 26 January, Friday

    Time Temperature Precipitation Wind Pressure Humidity
    00:00 -3°C° 0 mm 1 mps 740 mmHg 81%
    01:00 -3°C° 0 mm 1 mps 739 mmHg 82%
    02:00 -3°C° 0 mm 1 mps 739 mmHg 83%
    03:00 -3°C° 0 mm 1 mps 739 mmHg 83%
    04:00 -3°C° 0 mm 1 mps 739 mmHg 83%
    05:00 -3°C° 0 mm 1 mps 738 mmHg 84%
    06:00 -3°C° 0 mm 1 mps 738 mmHg 84%
    07:00 -3°C° 0 mm 1 mps 739 mmHg 83%
    08:00 -3°C° 0 mm 1 mps 739 mmHg 83%
    09:00 -1°C° 0 mm 1 mps 739 mmHg 78%
    10:00 -2°C° 0 mm 2 mps 739 mmHg 72%
    11:00 +1°C° 0 mm 2 mps 739 mmHg 67%
    12:00 +1°C° 0 mm 2 mps 739 mmHg 65%
    13:00 +2°C° 0 mm 2 mps 738 mmHg 63%
    14:00 +2°C° 0 mm 2 mps 738 mmHg 61%
    15:00 +2°C° 0 mm 1 mps 738 mmHg 64%
    16:00 +1°C° 0 mm 1 mps 738 mmHg 67%
    17:00 0°C° 0 mm 1 mps 738 mmHg 70%
    18:00 0°C° 0 mm 1 mps 738 mmHg 72%
    19:00 -3°C° 0 mm 2 mps 738 mmHg 75%
    20:00 -3°C° 0 mm 2 mps 738 mmHg 77%
    21:00 -3°C° 0 mm 2 mps 738 mmHg 79%
    22:00 -2°C° 0 mm 1 mps 738 mmHg 80%
    23:00 -2°C° 0 mm 1 mps 738 mmHg 81%

    27 January, Saturday

    Time Temperature Precipitation Wind Pressure Humidity
    00:00 -2°C° 0 mm 1 mps 738 mmHg 82%
    01:00 -2°C° 0 mm 1 mps 738 mmHg 82%
    02:00 -2°C° 0 mm 1 mps 738 mmHg 82%
    03:00 -2°C° 0 mm 1 mps 738 mmHg 82%
    04:00 -2°C° 0 mm 1 mps 738 mmHg 82%
    05:00 -2°C° 0 mm 1 mps 738 mmHg 82%
    06:00 -2°C° 0 mm 1 mps 738 mmHg 83%
    07:00 -2°C° 0 mm 1 mps 738 mmHg 83%
    08:00 -2°C° 0 mm 1 mps 739 mmHg 83%
    09:00 -3°C° 0 mm 2 mps 739 mmHg 79%
    10:00 -1°C° 0 mm 2 mps 740 mmHg 75%
    11:00 +1°C° 0 mm 2 mps 740 mmHg 70%
    12:00 +2°C° 0 mm 2 mps 740 mmHg 69%
    13:00 +2°C° 0 mm 2 mps 740 mmHg 67%
    14:00 +3°C° 0 mm 2 mps 740 mmHg 65%
    15:00 +2°C° 0 mm 2 mps 740 mmHg 69%
    16:00 +1°C° 0 mm 2 mps 740 mmHg 74%
    17:00 -1°C° 0 mm 2 mps 740 mmHg 78%
    18:00 +1°C° 0 mm 1 mps 741 mmHg 81%
    19:00 0°C° 0 mm 1 mps 741 mmHg 84%
    20:00 -1°C° 0 mm 1 mps 741 mmHg 87%
    21:00 -1°C° 0 mm 1 mps 741 mmHg 87%
    22:00 -1°C° 0 mm 1 mps 742 mmHg 87%
    23:00 -1°C° 0 mm 1 mps 742 mmHg 88%

    28 January, Sunday

    Time Temperature Precipitation Wind Pressure Humidity
    00:00 -1°C° 0 mm 1 mps 742 mmHg 88%
    01:00 -1°C° 0 mm 1 mps 742 mmHg 88%
    02:00 -2°C° 0 mm 0 mps 742 mmHg 88%
    03:00 -2°C° 0 mm 0 mps 742 mmHg 88%
    04:00 -2°C° 0 mm 0 mps 742 mmHg 88%
    05:00 -2°C° 0 mm 0 mps 742 mmHg 88%
    06:00 -2°C° 0 mm 0 mps 742 mmHg 88%
    07:00 -2°C° 0 mm 0 mps 742 mmHg 88%
    08:00 -2°C° 0 mm 0 mps 743 mmHg 88%
    09:00 -1°C° 0 mm 0 mps 743 mmHg 83%
    10:00 +1°C° 0 mm 0 mps 743 mmHg 78%
    11:00 +2°C° 0 mm 0 mps 743 mmHg 73%
    12:00 +4°C° 0 mm 1 mps 743 mmHg 70%
    13:00 +4°C° 0 mm 1 mps 743 mmHg 68%
    14:00 +5°C° 0 mm 1 mps 742 mmHg 65%
    15:00 +4°C° 0 mm 1 mps 742 mmHg 70%
    16:00 +3°C° 0 mm 1 mps 742 mmHg 74%
    17:00 +2°C° 0 mm 1 mps 742 mmHg 78%
    18:00 +1°C° 0 mm 1 mps 742 mmHg 80%
    19:00 +1°C° 0 mm 1 mps 742 mmHg 81%
    20:00 0°C° 0 mm 1 mps 742 mmHg 82%
    21:00 0°C° 0 mm 1 mps 741 mmHg 81%
    22:00 0°C° 0 mm 1 mps 741 mmHg 81%
    23:00 -2°C° 0 mm 2 mps 741 mmHg 80%

    29 January, Monday

    Time Temperature Precipitation Wind Pressure Humidity
    00:00 -2°C° 0 mm 2 mps 741 mmHg 79%
    01:00 -2°C° 0 mm 2 mps 740 mmHg 78%
    02:00 -2°C° 0 mm 2 mps 740 mmHg 77%
    03:00 -2°C° 0 mm 2 mps 740 mmHg 76%
    04:00 -2°C° 0 mm 2 mps 739 mmHg 76%
    05:00 -2°C° 0 mm 2 mps 739 mmHg 75%
    06:00 -1°C° 0 mm 3 mps 739 mmHg 76%
    07:00 -1°C° 0 mm 3 mps 739 mmHg 76%
    08:00 -1°C° 0 mm 3 mps 739 mmHg 76%
    09:00 -1°C° 0 mm 4 mps 740 mmHg 73%
    10:00 +1°C° 0 mm 4 mps 740 mmHg 70%
    11:00 +2°C° 0 mm 5 mps 740 mmHg 67%
    12:00 +3°C° 0 mm 5 mps 740 mmHg 68%
    13:00 +5°C° 0 mm 5 mps 739 mmHg 68%
    14:00 +5°C° 0 mm 5 mps 739 mmHg 68%
    15:00 +4°C° 0 mm 4 mps 739 mmHg 73%
    16:00 +3°C° 0 mm 3 mps 739 mmHg 77%
    17:00 +2°C° 0 mm 3 mps 739 mmHg 82%
    18:00 +2°C° 0 mm 3 mps 739 mmHg 84%
    19:00 +1°C° 0 mm 3 mps 739 mmHg 85%
    20:00 +2°C° 0 mm 2 mps 740 mmHg 87%
    21:00 +1°C° 0 mm 2 mps 740 mmHg 87%
    22:00 +1°C° 0 mm 2 mps 740 mmHg 88%
    23:00 +1°C° 0 mm 2 mps 740 mmHg 88%
    Show more